Probability
0 0 0 0 0 0 0 0 1 3 7 12 17 19 19 17 18 21 22 23 25 28 33 36 37 36 33 29 29 29 26 24 24 26 27 27 25 23 21 17 16 16 16 15
0 0 0 0 0 1 1 0 0 2 8 14 17 19 17 16 18 21 23 25 27 31 34 36 36 36 34 30 28 27 25 23 23 26 27 25 23 23 22 19 17 17 18 16
0 0 0 0 1 2 2 1 1 3 8 13 17 17 16 16 17 20 25 28 30 32 33 33 33 32 31 28 26 25 24 23 23 24 24 22 20 20 21 20 19 19 18 17
0 0 0 0 1 3 3 4 4 5 8 11 14 15 16 17 18 22 26 30 31 29 28 26 26 26 25 23 23 23 22 22 22 22 22 21 18 17 19 19 19 18 18 17
0 0 0 0 1 2 4 6 7 8 10 11 12 15 21 22 21 24 28 30 29 25 23 22 22 22 20 19 19 20 21 21 20 20 20 20 18 17 17 18 18 18 18 17
1 1 0 1 1 1 5 9 11 14 17 17 17 21 26 26 25 26 28 29 25 21 21 22 21 20 19 18 18 19 21 21 19 18 18 19 18 18 17 17 18 18 17 16
4 3 2 3 3 5 10 16 19 21 24 27 27 28 28 28 28 29 28 25 22 20 22 24 23 21 20 20 19 20 20 20 19 18 17 17 18 18 17 17 17 17 15 15
7 7 7 8 9 11 17 20 21 22 25 28 30 29 29 30 31 30 28 23 20 22 25 25 24 23 22 22 23 23 21 20 20 18 17 16 16 17 17 16 15 15 14 13
7 9 11 11 12 13 14 14 15 16 19 21 24 26 28 29 29 28 25 23 21 24 27 25 24 23 23 24 25 25 23 21 19 18 17 17 16 16 16 15 14 13 12 11
9 10 10 10 11 10 9 8 9 10 13 15 19 22 24 25 26 23 23 24 24 25 26 24 23 22 22 23 23 23 23 21 18 16 16 17 16 15 15 14 13 12 10 10
11 10 9 9 9 9 8 7 8 9 10 13 17 19 20 23 24 23 23 25 26 26 26 24 22 22 21 21 23 24 23 21 17 13 13 15 14 11 11 11 10 9 8 8
9 8 7 7 7 7 6 6 7 9 10 13 16 17 19 23 25 25 25 25 25 26 25 23 23 22 21 22 24 26 24 21 17 12 11 13 12 9 8 7 6 4 4 4
8 6 6 6 6 4 3 4 6 9 11 13 15 15 17 21 25 27 27 26 25 24 22 21 23 23 22 23 25 26 23 19 15 12 10 10 10 8 5 4 3 2 1 1
8 7 8 8 7 5 4 5 6 9 12 13 14 14 16 20 24 27 27 25 24 23 21 21 22 22 21 22 23 24 21 17 13 11 9 8 8 7 6 4 4 4 2 2
7 7 8 8 6 5 6 6 8 11 12 13 13 14 17 21 25 27 27 25 23 22 21 22 22 20 19 20 21 21 18 13 10 8 8 7 7 7 6 6 6 6 5 5
6 5 5 6 6 6 7 9 11 12 14 14 14 14 17 21 24 25 25 23 23 23 23 24 22 19 17 17 17 16 13 8 6 6 7 7 6 6 6 7 7 7 7 7
6 5 5 5 7 7 8 10 12 14 15 16 16 14 13 16 21 23 21 21 24 26 25 24 21 18 15 14 13 11 7 4 4 5 5 6 6 6 7 7 8 9 8 7
8 7 7 8 10 9 9 10 12 14 16 18 17 14 12 14 19 22 21 22 25 27 25 21 19 17 14 12 10 8 6 4 4 4 4 5 6 6 7 8 8 8 8 8
9 9 9 10 10 8 8 10 12 14 16 15 15 16 17 18 19 21 22 23 25 25 23 19 15 14 13 11 9 8 7 4 3 4 4 5 6 6 7 7 7 7 8 8
8 8 9 9 8 6 7 10 12 12 12 11 11 14 19 21 21 21 22 22 22 22 21 17 13 13 12 10 8 8 7 4 3 3 4 5 6 6 6 6 6 6 7 8
6 6 7 8 9 7 7 8 9 9 8 7 8 10 14 19 20 21 21 20 20 21 20 16 13 12 10 8 7 7 6 4 3 3 3 4 6 6 6 6 6 6 6 7
9 9 9 10 11 10 8 7 6 6 6 7 9 10 12 15 17 18 18 17 17 18 18 16 12 8 6 6 6 6 5 4 3 3 3 4 5 6 6 5 5 5 7 8
15 15 14 12 12 11 10 8 7 7 8 9 11 12 12 13 14 14 14 13 11 11 13 13 10 4 3 5 5 4 4 3 3 3 3 3 4 4 5 5 5 7 8 9
17 18 16 13 11 10 10 9 9 8 8 8 10 11 10 10 11 11 11 10 7 6 8 8 5 2 1 3 4 3 3 3 3 3 3 4 3 4 5 6 7 8 8 8
15 15 14 12 10 9 8 8 8 8 6 6 7 9 9 8 8 8 9 8 6 5 6 5 2 1 1 3 3 3 3 3 3 3 4 4 4 4 5 6 7 7 6 6
12 11 10 10 9 8 6 5 5 5 4 4 6 8 7 6 6 6 6 5 4 4 6 5 4 2 2 3 3 3 4 4 4 5 5 4 4 4 5 5 6 5 5 5
8 8 7 7 7 6 4 3 4 4 4 4 6 6 6 4 4 4 4 2 2 4 6 7 6 4 3 3 3 4 5 5 6 7 6 4 4 5 5 6 6 6 5 5
Wind_Speed
11 11 11 12 12 11 9 8 8 4 2 4 5 5 5 5 4 6 7 6 7 6 6 5 5 4 4 3 3 4 3 3 2 2 1 1 1 1 1 0 0 1 1 1
12 13 14 13 12 11 8 6 5 5 2 3 5 7 6 6 5 5 6 6 6 6 6 5 4 4 3 3 3 3 2 3 2 2 2 2 1 1 1 1 1 1 1 1
12 13 14 12 10 8 7 6 5 4 2 6 5 5 5 4 5 5 5 5 5 5 5 4 4 3 3 3 4 3 2 2 2 2 2 1 1 2 2 2 2 2 2 1
11 11 14 8 9 9 5 4 3 2 2 5 8 6 5 4 4 4 4 5 4 4 5 4 4 3 2 3 3 3 2 2 2 1 1 1 1 1 1 1 1 1 1 2
9 11 11 7 7 7 6 2 3 2 2 5 6 6 5 5 4 3 4 4 4 3 4 4 4 4 3 2 3 2 2 2 1 1 1 0 1 1 1 1 1 1 1 1
10 11 10 6 6 7 5 1 4 5 3 3 3 2 4 5 5 4 4 4 3 3 4 4 3 3 2 1 2 2 1 1 1 1 1 0 0 0 1 1 1 1 1 1
10 11 6 5 5 4 4 3 6 5 4 5 5 4 5 7 5 4 4 3 3 3 3 3 2 3 2 1 1 1 2 1 1 1 1 1 1 0 0 1 1 1 1 1
8 9 5 8 5 4 4 5 7 6 6 7 6 6 6 5 5 4 4 3 2 2 3 3 3 2 1 1 1 2 2 2 1 2 2 1 1 1 1 1 1 1 1 1
2 1 3 5 6 4 4 5 5 5 5 5 5 6 6 5 4 3 3 3 1 2 3 2 2 2 1 1 1 1 2 2 2 1 1 1 2 2 2 1 1 1 1 1
3 0 2 3 4 3 4 4 4 4 4 3 3 4 4 3 3 2 2 2 1 1 2 2 2 2 1 2 1 2 2 1 2 2 2 2 1 1 1 1 1 1 1 1
3 2 4 3 2 3 4 4 3 4 3 3 3 2 2 2 2 2 2 2 1 0 1 2 2 2 1 1 1 2 2 2 2 2 1 1 1 0 0 0 0 0 1 1
3 2 2 4 3 2 2 2 3 3 2 2 1 1 1 2 2 2 1 1 1 0 0 1 2 2 1 2 2 2 2 2 2 2 2 2 1 1 3 2 3 2 0 1
6 5 3 3 4 3 1 1 1 2 2 1 1 1 1 1 1 1 1 1 0 0 0 1 2 2 2 1 2 2 2 2 2 1 1 1 1 1 1 1 1 1 0 0
5 5 5 4 4 4 3 2 1 1 1 1 1 1 1 1 1 1 1 1 1 0 0 1 2 2 1 1 1 2 3 2 2 1 1 1 1 1 1 1 1 0 2 3
5 5 5 4 5 4 3 3 2 2 1 1 1 1 1 1 1 1 1 1 1 0 0 1 2 1 1 1 1 2 2 1 1 1 2 1 1 1 1 1 1 1 0 1
5 5 4 3 4 4 4 3 2 2 1 1 1 1 1 2 1 0 0 1 1 0 1 1 1 1 1 1 1 2 1 2 2 2 2 2 1 1 1 1 1 1 1 0
5 5 5 5 4 4 3 2 2 2 1 1 1 1 1 0 0 1 1 0 0 0 1 1 1 1 1 1 2 2 2 2 2 2 2 2 1 2 1 2 1 1 0 1
5 4 4 4 3 3 4 4 3 2 0 1 1 1 1 2 2 1 2 1 1 1 2 2 2 2 2 2 2 2 2 2 2 3 2 2 2 2 2 2 2 1 0 1
3 3 3 3 3 4 3 3 3 1 0 1 2 1 1 2 2 2 2 2 2 2 2 2 3 4 4 3 2 2 3 3 2 2 2 2 3 3 2 2 2 2 2 1
3 3 3 3 3 3 3 3 2 2 1 1 2 2 3 3 3 3 2 2 2 2 1 2 4 4 3 2 2 4 4 3 3 3 3 3 3 3 2 2 2 2 1 1
2 2 2 2 3 3 3 2 2 2 2 2 2 2 3 3 3 3 3 3 2 1 2 3 3 2 2 1 4 4 4 4 3 3 2 2 2 3 3 2 2 2 1 1
3 2 2 2 2 3 3 2 2 3 2 2 3 3 3 4 4 3 3 2 2 2 2 3 2 1 1 2 4 4 4 4 3 3 2 3 3 2 2 2 2 2 1 1
3 2 1 2 2 3 3 3 3 3 3 3 3 3 3 3 3 2 2 1 1 2 2 1 2 3 2 3 3 3 4 4 3 3 2 2 2 2 2 2 2 1 1 1
3 2 2 2 2 2 3 4 4 3 3 3 3 3 4 3 2 2 1 3 3 3 2 3 5 4 4 4 3 3 3 3 3 3 2 2 2 1 1 1 1 1 1 1
3 3 3 3 3 3 3 4 4 3 3 2 2 2 3 2 1 0 1 2 3 3 2 3 6 6 5 3 3 2 2 2 3 3 2 2 2 1 1 1 1 1 1 1
3 3 2 3 3 2 3 2 2 2 2 2 2 1 1 1 1 1 0 1 1 1 1 1 2 4 4 3 2 2 1 1 1 2 2 2 2 2 2 2 2 2 2 2
3 2 2 3 3 3 2 2 1 1 1 1 1 2 2 1 1 1 0 0 0 0 0 1 1 1 1 1 1 1 2 2 2 2 2 2 2 3 3 3 2 2 2 2
Wind_Direction
285 286 281 275 277 274 262 268 286 286 261 162 160 141 129 124 129 124 124 126 121 115 112 116 112 109 111 107 95 98 111 115 108 102 86 75 59 50 48 337 343 348 315 316
279 280 281 274 274 275 274 280 284 278 289 128 127 131 133 138 139 138 132 126 119 115 116 116 118 114 104 98 91 96 98 93 90 84 75 64 51 42 26 18 6 347 333 330
280 283 284 273 280 278 284 287 270 274 178 155 145 136 135 138 149 139 134 124 117 123 129 127 125 119 110 109 106 105 98 82 80 79 76 62 28 33 29 24 13 349 344 349
275 276 271 283 306 302 293 298 338 24 137 148 131 134 124 128 138 135 128 124 125 137 138 138 130 129 119 122 123 125 126 116 93 88 82 77 72 37 7 1 326 323 338 347
267 268 266 273 291 299 295 344 16 14 83 106 119 116 103 105 118 117 113 115 126 142 141 136 142 144 144 152 141 138 134 130 114 106 99 93 76 16 350 336 322 311 331 339
255 263 268 285 320 338 321 94 31 24 33 91 114 130 103 95 90 83 90 101 110 127 131 130 139 135 140 145 145 133 128 123 124 155 146 164 140 250 298 297 295 292 337 348
254 262 269 316 321 326 307 42 31 42 42 67 71 71 96 103 96 90 85 88 108 130 129 127 124 121 138 158 147 134 132 132 153 191 206 203 178 189 261 278 278 294 302 294
254 262 283 3 4 26 51 47 47 41 50 63 74 84 87 87 87 94 93 92 87 109 104 110 116 117 129 123 118 133 150 151 178 192 223 208 191 225 228 246 260 257 259 260
276 266 75 46 50 53 64 60 50 48 57 65 72 92 90 78 69 73 86 99 114 117 117 120 125 128 154 143 150 165 170 178 192 195 189 202 218 228 229 230 251 262 305 335
314 79 92 95 77 38 48 63 60 64 66 66 58 85 91 90 85 82 65 70 71 102 139 133 131 126 149 151 161 177 186 203 207 197 195 199 222 226 239 264 295 339 346 329
283 335 349 349 43 40 32 43 57 58 45 41 48 61 85 93 89 83 71 57 72 144 148 124 119 131 150 149 172 182 194 207 221 204 195 196 192 312 217 250 145 240 326 334
282 341 317 320 356 26 22 8 28 40 25 38 36 22 80 90 90 85 71 64 70 72 78 129 135 150 159 175 175 182 195 209 231 217 192 209 161 87 44 83 119 114 90 339
341 339 334 331 316 345 338 313 4 358 344 355 355 11 47 81 105 76 63 54 85 258 264 168 158 158 147 165 176 194 217 221 239 251 231 225 185 167 150 103 115 126 136 155
329 332 327 314 322 333 322 311 310 331 325 328 335 47 64 49 71 67 42 3 331 280 244 164 132 124 131 162 197 224 233 216 229 247 254 249 234 215 210 204 186 234 213 220
314 318 315 328 322 313 302 294 282 268 272 338 29 45 85 64 56 36 31 13 350 301 153 112 108 106 108 215 216 237 249 240 245 270 269 253 250 250 235 210 222 248 220 206
306 304 303 294 294 289 281 274 282 308 342 346 342 27 61 75 75 35 21 38 324 303 94 113 151 163 178 222 237 243 246 227 225 258 266 260 259 268 277 267 235 235 256 125
287 293 301 289 281 283 291 294 286 299 334 344 332 2 26 9 217 257 276 232 123 181 188 188 181 176 188 192 231 253 254 228 214 242 256 264 285 287 284 286 287 255 201 159
288 281 276 283 297 298 295 289 279 274 296 288 285 235 235 258 257 253 267 246 203 212 218 203 192 201 204 211 232 244 253 228 215 235 256 274 284 276 268 263 268 275 215 171
295 301 308 310 300 297 304 305 302 309 131 247 260 234 226 242 243 240 232 221 222 228 220 194 182 205 221 213 231 240 251 247 232 229 234 230 251 257 265 268 265 246 240 221
320 324 319 314 308 304 308 312 311 303 270 251 259 251 245 249 240 234 224 227 236 252 227 182 200 218 223 202 235 252 257 257 250 245 244 239 247 256 259 266 278 284 274 242
315 310 315 325 319 312 299 293 289 290 286 270 265 267 273 272 259 246 244 238 208 204 215 190 214 220 209 211 235 251 256 258 258 255 253 257 259 264 267 269 270 280 282 273
311 300 302 316 315 315 317 300 281 281 276 273 269 266 268 267 257 250 247 248 206 164 206 213 213 162 188 240 248 256 265 267 264 259 258 257 258 261 266 277 275 269 276 279
325 320 318 313 307 311 314 306 294 280 273 271 271 265 262 271 272 256 241 225 173 169 208 204 130 145 199 254 265 268 275 275 270 266 267 264 262 266 274 281 281 285 306 329
327 312 291 288 290 290 289 292 296 289 280 271 255 248 248 249 251 245 190 136 129 160 197 158 168 188 229 251 264 267 272 280 281 271 267 272 273 270 286 312 317 323 10 22
301 292 283 279 267 255 252 257 252 246 260 262 259 243 245 249 249 308 99 121 143 174 196 184 194 211 229 249 258 268 274 300 307 305 304 302 300 308 343 346 357 358 357 6
278 277 279 271 281 282 268 260 264 273 284 294 306 319 14 49 40 27 117 167 177 188 215 215 198 212 231 242 254 273 290 291 299 303 330 343 352 5 24 20 16 12 9 14
269 265 253 258 251 252 261 264 262 278 278 305 345 353 7 38 46 11 333 216 149 175 251 278 255 245 260 291 317 340 354 359 360 353 359 3 13 24 32 37 34 24 12 21